This is the latest recevied weather packets stored in our database for station/object WB9FIU. If no packets are shown the sender has not sent any weather packets the latest 1 day(s).
| Time | Temp. | Humidity | Pressure | Rain* | Wind** | Luminosity | Snow |
|---|---|---|---|---|---|---|---|
| 1778084942 | 13.89° C | 61% | 1013.1 hPa | 0 mm | - | - | - |
| 1778084882 | 13.89° C | 59% | 1013.1 hPa | 0 mm | - | - | - |
| 1778084342 | 13.89° C | 57% | 1013.1 hPa | 0 mm | - | - | - |
| 1778083981 | 13.89° C | 60% | 1013.2 hPa | 0 mm | - | - | - |
| 1778083921 | 13.89° C | 60% | 1013.3 hPa | 0 mm | - | - | - |
| 1778083861 | 13.89° C | 61% | 1013.3 hPa | 0 mm | - | - | - |
| 1778083323 | 13.89° C | 62% | 1013.1 hPa | 0 mm | - | - | - |
| 1778083201 | 13.33° C | 58% | 1013.1 hPa | 0 mm | - | - | - |
| 1778083141 | 13.89° C | 57% | 1013.2 hPa | 0 mm | - | - | - |
| 1778083021 | 13.89° C | 59% | 1013.3 hPa | 0 mm | - | - | - |
| 1778082962 | 13.33° C | 60% | 1013.2 hPa | 0 mm | - | - | - |
| 1778082542 | 13.33° C | 62% | 1013 hPa | 0 mm | - | - | - |
| 1778082362 | 12.78° C | 62% | 1013 hPa | 0 mm | - | - | - |
| 1778082302 | 12.78° C | 62% | 1013 hPa | 0 mm | - | - | - |
| 1778082242 | 12.78° C | 62% | 1013.1 hPa | 0 mm | - | - | - |
| 1778081941 | 12.78° C | 62% | 1013 hPa | 0 mm | - | - | - |
| 1778081821 | 12.78° C | 62% | 1012.9 hPa | 0 mm | - | - | - |
| 1778081761 | 12.78° C | 62% | 1013 hPa | 0 mm | - | - | - |
| 1778081282 | 12.22° C | 64% | 1013 hPa | 0 mm | - | - | - |
| 1778081222 | 12.22° C | 64% | 1013 hPa | 0 mm | - | - | - |
| 1778081102 | 12.22° C | 65% | 1013.1 hPa | 0 mm | - | - | - |
| 1778081043 | 12.22° C | 66% | 1013.2 hPa | 0 mm | - | - | - |
| 1778080982 | 12.22° C | 68% | 1013.2 hPa | 0 mm | - | - | - |
| 1778080322 | 12.22° C | 67% | 1013.3 hPa | 0 mm | - | - | - |
| 1778080081 | 12.22° C | 67% | 1013.3 hPa | 0 mm | - | - | - |
* Rain latest hour (hover to see other rain measurements)
** Current wind speed in m/s (hover to see current wind gust speed)